GFSSGP_500_spd_000.txt.gz
Wind_Speed
15 16 16 17 17 18 16 16 15 16 13 11 12 13 13 13 9 7 7 7 9 9 8 7 7 5 4 3 2 2 3 3 4 4 4 3 3 2 2 1 3 4 5 5 4 3 4 8 12
11 12 12 14 14 13 12 10 10 9 9 10 11 12 13 14 13 11 10 10 11 10 11 10 10 9 7 6 6 5 2 3 3 2 0 0 0 1 2 3 3 4 5 6 6 5 4 5 7
9 10 12 12 13 11 10 10 10 9 10 11 13 13 13 13 12 12 13 13 13 11 11 12 13 13 12 12 9 7 7 6 6 7 6 5 5 4 5 6 7 6 6 8 8 9 8 9 9
8 9 11 13 13 12 9 7 8 8 10 11 11 13 14 12 13 12 13 14 15 15 14 13 13 14 15 15 14 13 12 10 10 10 10 9 9 8 9 9 10 11 12 13 14 14 14 13 12
8 8 9 11 11 13 14 10 10 10 10 11 13 13 13 13 14 12 12 13 15 15 16 16 16 15 16 17 18 17 16 15 14 13 13 13 12 12 13 14 15 16 16 17 18 18 18 17 16
8 8 9 9 9 9 11 11 11 10 11 12 13 15 15 13 12 12 11 11 12 12 15 17 18 18 18 18 20 20 21 19 17 16 16 16 16 17 16 17 17 18 18 19 19 20 20 19 16
11 10 9 9 9 9 10 12 11 11 12 12 12 13 15 14 12 12 11 11 12 12 13 15 17 19 20 21 21 21 23 23 22 20 19 19 19 20 21 22 21 20 20 20 21 20 19 17 17
13 13 12 12 12 11 12 12 12 12 12 12 13 13 15 13 12 10 10 10 11 11 12 13 15 16 19 20 22 23 23 24 25 23 22 22 23 24 25 26 26 25 25 25 25 24 23 22 21
20 19 19 18 16 15 14 15 15 14 14 15 11 14 13 13 12 12 13 12 13 12 11 11 12 14 16 18 20 22 24 25 26 27 27 27 26 26 27 27 27 28 29 27 28 29 30 31 30
26 26 27 24 25 23 22 20 19 18 17 18 17 19 18 17 16 15 14 14 15 15 14 15 15 15 15 17 20 21 23 25 27 29 30 30 30 29 29 30 30 31 31 31 31 32 33 35 36
31 31 32 30 30 29 29 29 27 23 19 24 22 21 21 24 22 21 19 19 18 18 18 19 19 19 20 20 20 21 23 27 29 31 32 33 34 33 33 34 35 35 35 36 36 37 37 38 38
32 32 35 33 34 33 34 34 33 32 23 28 28 26 25 26 27 27 26 24 25 22 23 23 23 21 20 21 23 23 25 26 27 29 32 33 35 37 37 37 37 37 37 37 37 40 41 41 41
36 34 36 35 36 36 39 35 37 30 33 33 32 30 30 29 28 30 30 31 30 27 28 28 26 25 23 22 25 25 27 28 27 27 28 29 32 34 37 39 40 40 39 41 41 41 42 42 43
36 36 35 34 34 40 42 35 34 24 37 34 35 34 32 31 32 32 32 34 32 33 31 31 28 28 27 27 29 28 29 29 27 28 28 29 30 32 35 37 39 40 42 44 44 44 44 45 45
36 37 34 27 32 41 42 31 25 27 36 33 33 33 35 33 34 34 34 35 35 35 35 34 32 31 30 30 31 30 28 29 28 28 29 30 30 32 34 34 36 38 40 42 44 46 45 47 48
39 39 34 24 32 39 41 34 21 27 33 30 30 30 29 28 30 31 33 35 34 33 34 36 35 32 33 33 33 34 31 29 29 30 29 29 29 30 30 31 32 35 37 39 40 43 45 47 48
37 42 40 34 31 39 44 44 29 32 36 32 27 29 28 28 29 33 34 34 34 33 33 35 35 33 34 36 33 32 31 30 31 31 30 30 31 32 33 34 35 35 37 39 40 43 44 45 48
42 49 47 43 31 43 50 49 42 35 39 36 31 29 29 30 30 36 33 31 30 31 32 34 34 34 37 38 35 34 33 33 32 31 31 31 31 32 32 33 35 38 39 39 40 42 44 45 47
48 51 53 47 38 48 52 55 50 41 38 36 36 33 29 29 27 32 34 31 28 30 33 35 36 37 37 36 36 35 35 35 33 33 32 34 35 35 34 35 36 36 37 40 41 42 44 45 45
49 50 51 49 44 51 55 56 53 47 41 34 34 31 30 32 32 33 34 34 33 33 32 34 37 38 36 37 36 35 35 34 34 35 37 38 38 37 37 38 37 37 38 39 40 42 43 45 46
47 50 49 54 52 53 55 58 49 42 39 36 35 34 33 33 35 34 35 36 36 35 37 35 35 35 35 36 35 35 35 36 37 38 41 41 40 41 42 42 42 41 41 40 42 43 44 44 45
51 44 50 54 56 58 54 57 48 42 43 39 39 34 29 32 32 33 34 36 38 39 38 38 39 41 37 38 39 38 39 39 41 43 42 41 41 43 44 44 45 44 43 43 44 45 45 45 45
51 49 50 52 56 59 61 62 56 48 42 42 32 34 33 28 31 33 35 39 38 38 39 38 36 39 42 43 43 41 40 41 42 42 43 43 44 46 46 48 47 47 47 48 48 47 46 46 46
50 52 48 50 54 62 57 56 49 53 49 44 45 40 41 36 33 34 33 34 36 38 41 43 43 44 46 45 43 41 41 44 46 46 45 45 46 50 51 51 51 52 54 53 51 51 49 48 48
48 51 57 62 60 62 61 58 52 55 58 56 53 50 45 44 45 41 36 33 37 39 42 45 45 46 46 42 39 40 43 47 49 49 49 48 49 53 57 57 57 56 58 57 57 56 56 54 55
57 57 61 65 65 65 63 67 54 60 59 61 60 57 61 51 48 48 39 37 35 30 35 39 40 42 45 45 47 47 49 51 53 53 54 54 48 49 54 59 62 63 63 60 57 55 54 54 55
62 65 60 62 64 69 70 70 62 61 61 65 61 56 60 62 47 49 40 31 36 42 38 36 44 46 46 46 48 51 53 55 57 57 53 52 49 49 52 57 60 61 62 61 60 60 57 53 54
58 56 60 66 70 71 70 71 68 63 62 65 64 58 58 58 54 25 25 33 43 52 46 45 47 54 56 51 52 56 58 56 59 59 56 54 52 50 52 57 58 59 58 59 58 54 57 59 60
51 55 58 63 71 74 75 67 55 61 62 62 58 57 56 50 50 47 52 51 58 52 45 45 52 53 56 57 54 56 57 58 58 59 61 60 54 51 53 56 56 58 57 56 57 58 57 61 65
61 54 50 55 58 66 75 78 44 55 55 57 61 57 54 56 47 50 53 55 56 49 47 55 57 57 62 62 57 56 57 57 58 60 58 56 55 55 55 54 54 56 51 57 58 62 62 64 68

GFSSGP_500_spd_003.txt.gz
Wind_Speed
12 12 13 13 14 14 12 13 13 12 9 8 8 8 9 9 9 9 8 10 9 9 9 8 8 6 4 1 2 3 5 6 7 7 7 7 7 6 5 3 1 1 3 4 3 4 5 7 9
7 8 9 11 10 9 9 9 10 9 8 7 8 9 9 10 9 11 10 10 11 10 11 11 11 10 8 6 5 3 3 3 2 2 4 5 5 4 3 2 2 2 1 2 2 5 6 6 7
7 8 9 10 9 8 7 8 8 7 7 8 9 11 11 10 10 11 12 12 13 13 12 11 12 12 12 10 9 8 5 5 4 4 4 4 3 4 3 2 2 2 3 4 4 5 7 8 9
7 8 8 9 10 10 10 9 10 11 10 10 10 11 12 12 12 10 11 11 12 15 15 15 13 13 14 14 12 11 11 9 9 8 8 8 7 6 6 6 6 6 8 8 9 10 11 11 11
9 8 8 7 9 10 10 10 10 9 9 11 11 11 10 11 12 11 11 10 10 11 14 17 17 16 15 15 15 15 15 13 13 14 11 10 10 10 10 11 11 12 13 12 13 14 15 15 15
10 10 10 9 9 10 11 10 10 11 10 9 10 12 11 9 10 11 10 10 10 10 12 14 16 18 17 17 18 18 18 18 17 17 16 15 13 13 13 14 15 15 15 15 15 15 15 16 16
14 14 13 13 12 12 11 12 13 14 14 12 11 11 12 11 8 8 9 9 8 9 10 11 13 15 17 19 20 21 22 21 21 20 20 20 19 17 17 17 18 19 19 18 18 18 18 16 16
20 20 19 18 16 16 16 14 14 14 15 15 14 15 15 13 10 10 10 10 10 10 9 10 10 11 13 15 18 20 22 23 23 23 23 23 23 23 22 22 23 23 25 25 24 23 22 21 20
25 23 24 23 23 22 21 20 20 16 17 16 17 18 18 18 17 13 13 13 13 13 13 13 12 11 13 14 16 18 21 23 25 26 26 27 26 25 25 25 27 27 28 28 28 27 27 26 26
29 27 27 28 28 27 26 25 27 21 22 20 23 21 21 22 22 19 18 18 18 17 16 16 16 16 16 17 18 18 20 23 25 27 27 28 30 30 29 29 28 29 29 30 30 29 29 29 29
30 28 30 30 31 32 31 29 30 28 21 26 29 28 23 24 26 26 26 24 23 23 22 21 20 19 18 19 20 22 23 23 24 26 28 30 31 32 32 32 31 31 31 32 33 33 34 34 35
32 30 33 30 35 34 34 33 31 31 24 29 30 30 26 27 28 29 31 30 28 28 27 27 26 24 23 23 22 23 24 26 27 27 28 29 31 33 34 34 34 34 35 34 35 34 35 36 36
32 31 32 32 34 36 36 33 36 27 28 32 30 30 31 32 31 32 32 32 34 33 33 32 31 29 28 26 26 26 26 27 28 28 29 28 29 30 31 32 33 34 35 35 36 37 38 39 39
36 33 31 30 30 34 37 35 36 19 31 32 29 29 28 29 30 31 32 34 35 36 37 37 35 34 32 30 29 30 30 30 29 29 29 28 28 29 29 31 31 33 34 35 36 37 39 40 40
39 37 33 24 28 35 40 40 27 24 33 31 29 29 30 29 27 27 31 33 36 37 39 39 39 37 35 34 33 33 33 32 31 30 30 30 30 30 30 30 31 32 33 35 35 35 36 37 39
40 41 35 22 31 38 44 45 23 31 35 32 34 32 31 31 32 30 30 31 34 33 34 36 36 36 37 37 36 35 34 35 34 33 32 31 30 29 28 29 30 30 31 33 33 34 35 36 40
40 46 45 40 30 40 45 49 31 35 40 40 37 36 34 32 32 33 34 36 36 35 35 35 36 36 36 35 35 36 38 35 35 33 32 34 32 29 29 31 31 32 34 36 36 37 38 39 41
45 49 48 45 31 40 49 50 44 37 42 43 41 39 39 36 31 32 38 39 40 38 36 35 33 32 33 34 35 38 40 37 38 37 36 34 32 31 31 31 31 33 34 36 37 40 41 41 41
51 51 50 45 39 49 50 52 45 38 35 35 36 38 38 38 34 34 35 38 39 36 34 35 35 34 35 37 38 40 40 39 39 39 38 34 32 33 31 31 32 34 34 35 36 38 39 40 43
51 51 52 52 48 54 54 52 48 43 38 34 30 32 30 30 31 32 38 40 39 37 36 37 38 37 38 40 40 40 38 39 39 37 34 33 36 34 32 34 34 36 37 38 38 39 39 39 40
50 52 52 56 51 53 55 55 50 41 36 34 38 35 36 32 33 33 37 38 39 38 39 39 40 39 39 39 38 38 39 40 37 35 37 40 37 36 36 36 37 38 39 40 40 42 42 41 41
52 43 48 51 56 57 55 53 48 42 42 40 40 41 31 30 27 30 34 37 37 37 39 40 42 43 43 43 42 43 43 43 41 42 42 40 39 39 39 38 39 41 42 42 42 43 43 43 43
53 54 52 52 56 59 57 60 54 55 48 42 37 37 43 36 35 33 36 39 38 39 40 42 43 44 45 45 45 46 46 46 46 47 45 43 41 41 42 42 44 45 45 45 47 46 45 46 46
54 55 57 57 58 61 58 59 45 56 57 59 57 50 50 54 45 38 38 39 37 40 42 41 40 43 44 46 49 50 50 46 46 43 42 43 44 45 46 45 47 50 51 51 51 51 51 50 52
53 55 59 63 66 64 63 64 56 63 60 66 65 65 66 60 57 54 46 44 43 38 42 41 44 44 45 46 45 48 51 50 46 44 43 46 48 49 50 50 52 54 57 57 57 56 55 56 55
57 57 61 65 66 68 67 74 68 63 62 67 67 68 67 69 64 58 50 42 41 41 40 44 45 39 36 38 44 45 48 47 45 46 48 50 52 52 52 52 52 52 54 55 57 58 57 58 58
62 60 54 60 61 68 75 75 73 68 66 67 68 70 70 68 59 51 41 31 30 34 38 43 44 38 38 44 51 49 45 47 52 52 52 55 56 55 55 52 50 53 55 57 57 57 59 60 61
65 62 62 60 63 65 65 64 69 72 70 67 68 65 62 58 51 34 25 33 30 37 41 45 44 45 50 46 51 56 57 54 57 57 58 62 62 60 57 57 55 56 57 58 58 57 57 58 58
73 74 74 73 73 76 76 73 49 55 65 69 61 58 59 57 49 42 48 48 40 42 41 44 50 56 55 52 49 53 58 60 63 60 59 58 59 59 60 61 61 61 60 59 58 58 59 60 59
75 76 74 67 72 70 65 67 61 47 44 49 54 59 51 41 48 57 51 36 36 52 57 56 57 61 59 54 54 54 55 60 62 57 58 58 60 61 61 60 62 62 61 58 59 59 58 58 58

GFSSGP_500_spd_006.txt.gz
Wind_Speed
10 10 11 12 12 11 11 11 11 10 9 8 8 9 9 8 8 9 10 10 8 7 7 6 3 4 5 2 2 4 5 7 7 7 9 10 9 9 10 10 8 6 4 3 1 2 3 3 3
7 9 10 9 10 11 10 10 9 9 8 6 7 9 9 9 8 9 9 11 12 10 8 8 7 6 6 6 4 3 3 4 5 6 6 7 7 7 6 6 5 4 4 4 3 2 2 3 2
8 9 9 9 10 11 11 11 10 9 8 7 7 7 8 10 10 10 9 9 11 13 11 11 10 9 8 8 7 6 5 6 6 6 6 6 6 6 6 6 5 4 3 2 2 3 3 4 5
8 9 9 10 11 11 11 13 13 12 12 10 9 9 9 8 10 9 9 9 9 11 13 13 13 13 12 11 11 9 8 8 7 6 6 7 7 7 7 7 7 6 5 5 5 5 5 7 7
10 9 9 9 10 11 13 14 13 13 13 15 13 12 10 10 9 8 8 8 7 8 10 12 14 15 15 15 14 13 12 11 10 9 10 10 9 8 9 8 9 9 9 8 8 8 8 9 9
11 12 12 13 12 11 11 13 13 13 14 12 14 14 14 13 12 11 8 7 7 7 7 7 10 13 16 17 17 17 16 16 15 15 14 13 13 12 12 12 12 12 12 11 10 10 10 10 10
17 17 17 17 17 15 13 14 14 15 16 17 14 16 14 14 14 14 13 12 10 9 8 8 8 9 11 15 18 19 19 20 19 19 19 18 18 17 17 16 16 15 15 15 15 15 15 14 14
21 21 21 21 21 21 18 18 16 16 18 17 18 17 18 16 14 15 15 15 15 15 14 13 11 10 10 11 13 16 19 20 22 22 22 22 23 22 20 20 20 20 19 20 21 21 21 21 19
25 24 22 25 24 22 23 22 20 19 20 18 23 23 20 19 19 17 17 18 17 17 15 16 16 16 14 13 14 16 18 19 21 23 25 25 25 25 25 24 23 23 23 24 25 25 24 25 24
27 25 24 28 27 26 25 25 24 23 24 23 25 25 23 21 22 23 22 22 22 22 20 21 19 19 18 18 18 19 20 20 21 22 24 25 26 28 28 28 27 27 27 27 28 27 28 27 28
27 26 28 28 31 31 27 27 27 28 24 27 26 28 28 25 24 27 29 27 27 27 25 26 26 23 22 22 22 21 23 24 25 25 24 25 27 28 30 31 32 32 32 31 31 31 31 31 32
30 28 29 28 32 32 31 28 29 30 27 30 29 31 31 30 28 30 31 32 33 31 31 32 31 28 27 27 26 25 26 26 26 26 27 28 28 28 30 31 33 33 33 33 33 33 34 33 33
33 30 29 28 30 32 34 29 35 26 27 32 34 30 29 29 27 28 29 33 35 36 35 36 35 34 32 30 31 30 29 30 30 28 28 29 30 30 30 31 31 31 32 32 33 34 35 35 35
37 34 31 30 29 33 36 31 41 25 34 31 33 32 31 27 26 25 26 28 31 35 37 39 39 38 36 35 34 33 33 34 33 32 31 31 31 31 32 32 31 31 31 32 32 32 32 32 33
41 41 35 28 31 38 42 42 33 32 35 33 32 34 32 31 29 27 28 28 30 33 37 39 40 38 37 36 36 36 37 37 35 35 34 31 30 33 34 34 34 33 32 32 33 31 31 31 32
45 47 40 29 34 40 47 48 32 36 40 39 36 35 35 34 33 32 32 33 34 36 36 37 36 36 37 37 38 38 38 37 36 36 35 34 33 33 35 35 34 33 32 31 31 32 34 34 35
44 51 50 43 30 41 47 48 37 35 39 42 41 39 41 39 38 36 39 41 40 39 38 37 36 36 38 37 37 38 37 36 35 37 36 36 36 35 36 37 35 35 34 34 35 36 38 39 40
48 50 50 48 34 41 51 51 46 43 42 35 34 34 37 39 38 39 42 43 44 43 40 39 40 39 40 39 37 36 35 35 37 38 38 39 39 38 36 37 37 37 35 36 36 38 39 41 41
50 51 51 48 44 51 50 52 48 40 38 32 32 35 34 30 29 31 37 40 42 45 42 39 38 38 40 39 38 38 37 36 39 42 40 41 41 41 39 38 39 38 37 35 37 39 41 42 41
51 52 53 51 51 53 53 52 50 44 36 36 30 25 31 34 32 33 38 39 40 41 43 41 40 41 41 42 42 39 38 39 40 41 40 40 40 39 38 41 40 38 36 36 38 38 39 39 40
47 49 49 55 53 53 55 52 51 42 36 30 34 36 33 34 36 31 34 40 42 43 44 43 43 44 44 45 44 43 42 42 40 38 40 42 43 43 44 42 40 39 39 40 39 38 38 39 39
52 44 49 50 54 56 52 53 49 44 40 36 37 38 35 32 32 31 32 35 39 40 41 42 42 43 45 47 46 46 46 46 44 44 45 44 44 43 42 41 42 42 43 40 41 40 41 41 40
53 54 50 51 54 57 59 59 53 53 53 52 45 44 46 47 51 44 37 42 44 44 46 44 44 44 44 47 49 50 50 49 49 50 50 50 49 47 46 46 45 44 43 42 43 43 41 42 44
52 54 58 56 56 60 59 58 55 56 59 60 57 60 61 60 61 63 60 47 47 49 46 46 48 47 46 43 45 48 51 50 51 52 53 53 50 47 46 45 45 46 44 44 45 47 49 48 48
52 52 58 63 64 62 60 64 56 61 59 62 62 65 66 66 64 64 65 61 54 53 54 54 52 50 47 49 48 47 48 50 52 51 49 51 52 49 46 48 47 47 48 49 49 50 52 51 49
58 59 63 63 64 65 62 69 63 59 60 61 65 66 68 67 65 62 62 60 60 59 57 60 59 57 51 48 49 49 48 48 49 43 42 45 46 46 48 48 49 51 51 51 51 53 52 52 51
66 66 59 62 62 65 67 69 69 62 60 60 64 64 62 61 64 71 63 60 44 43 39 41 45 49 54 53 48 50 54 44 42 46 47 49 51 48 47 49 53 53 53 52 54 56 56 56 55
72 69 69 68 68 72 75 73 72 62 60 63 63 61 60 58 60 63 64 59 61 56 46 47 49 48 51 52 53 51 48 46 46 49 53 54 55 56 58 60 60 57 55 54 54 55 55 57 58
75 75 74 70 66 72 76 75 67 65 59 63 62 63 65 59 54 53 53 55 61 56 51 51 50 47 54 58 62 63 62 58 55 56 59 63 65 66 68 66 64 60 55 53 52 54 57 59 60
72 71 69 70 76 73 72 70 62 64 64 64 67 68 67 68 62 62 63 58 58 62 57 57 48 53 59 61 62 68 67 57 63 66 65 67 68 67 67 67 64 60 59 59 58 58 58 60 62

GFSSGP_500_spd_009.txt.gz
Wind_Speed
10 10 9 10 13 13 13 11 10 9 10 9 8 8 8 6 6 7 9 9 7 5 2 2 1 1 1 1 2 4 6 8 11 10 12 14 14 14 16 15 14 14 13 13 13 12 11 10 8
9 10 10 11 13 14 13 13 12 12 10 8 8 8 8 7 8 7 6 8 10 9 7 5 3 3 3 3 2 4 5 5 6 8 9 11 13 13 14 14 13 12 11 11 10 10 8 7 6
9 11 11 12 12 12 13 13 13 13 12 10 9 8 8 8 8 7 6 5 7 10 11 10 8 6 5 6 6 6 5 7 6 6 8 9 9 10 11 12 12 12 11 9 7 7 7 8 7
9 9 10 12 13 13 13 13 13 12 13 12 11 12 12 11 9 9 9 6 5 5 8 10 12 12 10 9 8 9 10 8 8 8 8 8 9 10 10 12 12 11 11 10 9 8 8 7 8
9 9 10 10 11 12 13 13 13 12 12 12 12 13 12 13 12 9 9 9 7 6 6 7 9 12 13 13 12 12 12 12 12 11 10 9 9 9 11 12 11 11 10 10 10 10 10 10 10
12 12 13 13 12 12 12 12 13 13 12 11 12 13 12 12 11 10 9 9 10 9 7 7 7 8 11 13 15 15 14 14 14 13 14 13 12 12 12 12 12 13 13 11 11 11 10 9 8
15 15 16 16 15 16 15 15 14 13 15 14 13 15 15 14 13 12 11 10 10 10 11 10 9 9 10 11 12 15 16 17 17 17 17 17 17 16 16 16 16 16 16 15 14 13 12 11 10
20 19 18 19 19 19 18 17 18 17 18 17 19 17 17 16 16 16 15 15 14 13 12 11 12 12 11 12 12 13 15 16 17 19 20 21 20 20 20 20 20 20 20 19 19 18 18 17 17
23 22 20 23 23 21 20 19 20 19 20 22 24 21 21 19 19 20 21 21 19 18 16 15 16 14 13 15 15 15 15 16 17 18 20 21 23 24 23 24 24 23 23 23 23 23 24 23 23
25 23 23 26 27 25 24 22 24 23 22 25 25 28 24 24 22 23 26 27 25 24 22 21 22 21 19 18 18 18 19 19 20 20 21 22 23 24 26 25 26 27 27 26 26 26 27 26 25
27 25 25 25 29 28 25 23 26 27 22 27 28 28 28 28 28 27 28 30 32 30 29 28 27 27 25 24 23 22 23 22 22 23 24 24 24 24 26 27 27 29 30 30 31 31 31 30 30
29 25 26 25 29 30 29 27 27 31 24 31 31 30 30 32 31 29 27 28 33 35 35 35 33 33 31 29 28 28 27 26 26 27 25 24 26 27 27 27 29 31 33 33 34 34 33 33 33
31 30 28 27 28 30 33 29 36 29 29 31 31 27 29 30 30 28 25 26 28 31 34 38 38 37 35 34 33 33 32 31 31 29 29 29 28 27 28 30 31 31 32 33 34 34 34 35 36
37 34 31 30 31 34 38 33 35 23 37 34 31 29 31 30 29 27 27 26 26 29 31 33 36 38 38 37 36 35 34 35 35 33 33 32 32 30 30 32 33 34 34 33 33 32 33 33 35
43 41 35 30 34 41 43 38 32 31 37 38 34 32 33 33 31 30 30 31 32 31 32 34 36 36 36 36 35 35 37 37 38 37 37 36 34 34 33 33 34 36 36 36 35 34 34 35 36
44 45 42 33 37 41 46 44 32 35 37 36 36 35 37 36 35 34 37 39 39 38 37 35 35 35 33 32 32 32 33 36 38 39 39 38 36 35 35 34 35 36 37 37 37 36 36 36 35
44 50 48 42 32 43 48 49 36 36 39 35 33 34 33 34 34 35 39 43 44 42 41 40 39 37 35 36 34 34 34 36 37 37 37 38 38 37 37 38 37 38 38 38 38 38 39 39 39
50 52 50 48 36 43 51 52 45 40 40 35 34 34 33 32 31 34 38 39 40 42 41 39 40 39 40 38 36 37 37 37 35 35 36 37 39 39 39 40 39 37 37 39 41 40 40 41 41
51 53 55 46 43 52 47 50 47 40 38 35 34 33 35 36 24 29 32 34 37 39 37 36 36 38 38 39 38 38 38 41 39 37 38 38 40 41 42 42 42 40 40 42 42 41 41 42 44
51 54 53 52 48 51 51 51 48 47 39 36 35 28 32 32 31 33 32 34 37 39 38 38 36 35 37 40 42 42 41 40 41 39 39 41 41 42 43 44 42 40 42 45 43 42 42 42 43
50 52 51 55 51 51 55 58 54 47 42 34 37 39 38 38 35 30 28 27 25 29 33 34 34 33 34 37 41 45 46 45 44 42 45 47 47 45 46 46 43 43 45 46 44 43 43 42 44
50 46 51 52 53 56 54 56 54 55 49 45 45 44 41 33 33 36 37 37 33 40 44 44 41 41 38 37 40 41 45 48 49 49 49 50 48 47 46 46 46 44 41 42 44 45 44 44 43
54 55 54 56 57 59 62 60 59 58 60 53 50 48 46 46 49 48 46 48 46 44 46 47 48 48 44 41 41 42 42 47 51 52 54 54 54 51 50 49 48 47 46 47 47 47 47 46 44
58 59 61 63 64 64 60 61 59 61 62 60 47 23 43 53 53 56 58 58 57 54 50 48 52 51 50 46 44 45 45 45 47 53 58 60 59 58 54 51 50 49 48 49 50 50 50 48 47
52 55 60 63 63 65 66 66 66 64 61 63 59 54 53 54 57 60 62 63 60 57 55 53 52 55 58 58 53 48 48 49 50 52 55 59 58 58 56 53 52 51 51 52 53 52 51 50 48
61 61 62 64 66 67 66 71 65 68 67 60 61 63 62 62 64 65 64 61 62 63 63 58 55 54 57 61 62 64 58 53 53 55 56 60 63 60 57 56 54 52 52 53 53 52 51 53 53
65 66 61 67 68 69 73 73 67 64 67 70 69 66 65 67 67 64 63 65 67 66 63 63 59 51 47 51 54 57 62 59 57 59 62 64 63 61 55 55 53 52 53 52 52 51 50 53 53
64 61 64 64 65 69 73 73 72 65 66 69 73 75 75 73 72 72 72 70 71 69 67 59 57 52 51 53 58 63 61 60 63 63 67 66 66 67 61 57 53 55 55 55 54 53 55 55 54
67 67 67 67 69 68 65 72 65 63 65 67 68 70 71 71 70 68 66 65 65 66 67 61 56 50 55 57 61 63 63 65 57 61 66 68 62 60 60 59 58 59 60 62 64 66 62 61 59
70 67 64 64 56 63 68 65 54 58 68 70 70 68 70 69 69 69 68 66 66 68 69 65 61 59 62 62 62 65 58 57 58 63 68 67 61 60 61 62 61 60 67 72 73 71 65 63 61

GFSSGP_500_spd_015.txt.gz
Wind_Speed
7 8 9 10 10 12 12 10 10 8 7 7 7 8 8 8 9 8 6 4 7 6 4 4 4 3 3 2 2 4 5 6 7 9 12 13 12 11 12 15 17 16 15 16 16 16 15 16 17
7 7 8 9 9 10 9 9 8 8 8 8 6 6 6 7 7 6 8 7 6 8 9 8 6 7 7 6 6 5 5 6 7 8 8 9 13 14 15 15 14 16 17 18 17 17 19 19 19
6 7 7 9 9 9 7 7 7 8 7 6 6 5 6 6 7 7 6 6 6 6 9 11 10 10 10 9 8 8 9 7 6 7 9 11 11 13 15 16 17 18 18 19 19 18 19 18 18
9 8 9 10 9 9 8 8 7 7 8 8 7 5 6 7 6 6 6 6 5 5 6 8 10 13 13 12 12 12 11 10 11 10 9 10 11 11 13 15 15 15 15 18 16 16 18 18 17
10 10 11 12 12 12 12 11 10 11 10 11 12 11 7 7 8 7 7 7 7 6 5 6 7 9 13 15 15 14 14 14 13 13 13 13 13 13 13 14 15 15 16 16 14 14 15 16 16
12 13 13 14 15 16 15 15 14 14 14 14 15 16 15 11 11 11 11 10 9 9 9 8 7 8 8 11 15 17 18 17 17 17 17 16 16 15 16 16 16 17 16 15 15 16 16 17 17
15 14 16 16 17 18 19 19 19 20 19 18 19 20 20 19 17 15 15 15 14 13 12 11 10 10 10 10 11 12 17 19 20 20 20 21 21 20 19 19 19 20 20 21 21 20 20 19 19
18 17 17 17 18 21 20 21 21 21 24 23 22 22 24 22 23 22 21 21 20 18 18 16 15 14 13 12 13 12 12 14 17 20 22 23 22 23 24 24 24 24 24 24 24 23 22 20 20
19 18 17 19 19 21 19 22 20 21 23 25 22 24 25 25 25 26 26 25 24 24 23 22 22 21 19 17 16 15 15 15 15 15 17 19 20 23 26 27 28 28 29 28 26 25 25 25 25
19 17 21 22 23 21 22 21 22 22 23 26 25 24 24 24 25 26 28 28 28 28 28 28 26 25 25 24 23 21 19 19 18 19 19 19 19 21 22 24 27 29 31 32 32 30 29 28 28
19 21 26 25 27 26 25 25 25 25 22 28 29 27 27 23 23 23 25 28 30 30 31 31 30 28 27 28 29 28 26 24 24 23 24 23 22 23 23 24 26 26 28 31 32 34 35 34 32
25 28 30 30 30 30 30 29 30 30 23 32 30 28 27 27 24 25 26 27 29 30 31 30 29 28 27 28 31 32 31 30 30 30 29 29 28 27 28 28 27 27 29 29 29 32 35 36 37
32 31 31 30 30 32 34 32 37 27 32 33 33 31 30 30 29 29 28 29 29 29 29 31 30 29 28 27 28 28 30 32 33 33 33 33 33 33 33 32 31 31 30 30 31 32 33 34 36
36 32 32 31 33 35 37 32 36 31 36 34 35 35 34 33 33 33 33 31 30 29 30 33 30 33 32 29 27 27 26 28 30 31 33 36 36 36 37 37 37 36 35 33 33 32 34 34 35
36 38 35 33 34 39 42 31 33 35 37 35 35 35 35 36 36 37 37 34 34 32 31 31 34 36 35 35 33 32 29 28 28 28 29 32 35 37 39 40 40 39 39 38 38 36 35 35 36
41 44 41 35 35 43 48 44 32 37 39 33 33 33 36 36 38 42 39 36 37 36 35 34 34 37 39 39 38 37 36 34 31 30 30 31 33 35 38 39 40 41 41 41 41 40 39 37 37
46 48 46 43 35 45 51 50 36 36 41 33 33 36 37 36 43 43 40 40 39 39 37 34 34 34 38 40 40 39 38 37 37 35 32 32 36 39 40 40 40 40 41 42 42 42 42 40 39
49 51 52 50 38 45 51 49 50 39 41 34 32 35 37 37 38 40 42 40 42 41 39 36 35 35 36 36 37 39 39 40 40 39 36 37 38 41 43 42 41 40 41 40 40 42 44 43 41
49 53 53 50 52 52 48 52 49 50 39 36 35 34 36 39 38 39 41 41 39 37 36 37 34 34 35 37 39 41 41 40 40 41 40 39 39 40 43 42 43 42 41 41 42 42 42 45 44
50 55 55 55 56 58 55 53 48 50 42 38 36 38 42 40 39 40 38 38 40 38 36 35 38 41 39 36 38 39 39 41 42 41 41 40 42 42 44 44 43 45 47 47 46 46 46 47 47
54 55 57 59 58 57 61 57 54 52 48 44 44 44 42 43 43 42 42 45 46 44 44 41 39 40 42 37 32 34 35 36 38 38 41 42 46 48 49 51 50 49 50 51 51 49 48 48 48
52 49 53 55 57 60 63 65 59 58 56 58 54 51 52 49 49 50 49 44 46 47 44 42 43 42 42 43 44 44 42 42 43 44 43 43 45 48 50 52 53 53 52 52 52 53 52 51 48
53 55 54 56 59 61 60 64 62 58 59 58 57 55 51 49 39 38 40 42 43 48 47 45 47 47 47 51 52 49 50 49 47 47 48 49 49 49 51 53 54 53 53 54 55 55 55 54 53
53 53 55 55 56 59 59 58 61 60 60 62 65 61 46 32 32 39 36 38 40 43 44 50 57 60 57 59 58 57 56 54 52 52 53 53 54 54 55 55 57 58 57 57 58 58 60 60 59
50 53 57 60 60 63 57 64 65 64 64 64 61 62 59 57 55 55 54 51 50 50 54 60 65 65 60 58 61 62 63 64 59 56 56 57 58 60 61 61 61 62 63 64 63 62 64 66 66
55 57 59 63 64 66 64 70 68 68 67 67 69 69 68 67 66 64 64 64 64 64 68 70 72 73 72 70 71 71 70 67 67 68 66 63 64 66 67 67 68 68 70 69 69 69 67 67 69
58 58 58 62 62 65 70 69 66 65 67 67 69 70 72 74 75 72 73 74 71 67 68 68 69 69 72 72 69 69 71 73 73 74 73 73 70 69 69 72 74 72 72 71 68 68 69 68 68
56 56 56 50 55 63 65 70 70 60 63 64 64 68 67 68 69 72 73 70 66 64 64 66 67 69 69 70 69 68 65 65 68 72 72 71 74 74 70 70 72 77 78 75 72 71 68 67 69
57 57 58 59 62 65 64 66 65 62 58 65 70 66 65 66 66 69 74 76 66 64 63 62 65 65 68 68 68 67 68 69 69 74 73 74 75 76 74 71 72 73 75 77 78 78 73 72 70
59 58 56 56 58 61 61 64 55 61 68 72 72 71 65 65 69 74 74 68 65 65 68 69 71 69 70 74 73 70 70 72 74 72 71 73 77 77 76 75 74 74 77 79 78 78 80 78 73

GFSSGP_500_spd_021.txt.gz
Wind_Speed
7 8 8 9 11 10 13 13 11 9 9 8 8 8 9 10 9 9 8 7 5 4 5 5 5 5 4 5 5 4 3 2 5 10 13 14 14 14 14 12 14 14 14 14 13 13 13 12 12
8 8 8 9 10 11 12 10 9 9 9 8 7 7 8 7 8 8 7 8 8 6 4 6 7 7 7 6 6 5 4 3 3 5 6 9 13 13 13 13 13 14 13 13 13 13 13 12 12
8 8 8 10 11 12 12 10 10 11 11 10 9 8 9 9 8 9 9 7 8 8 7 5 5 8 9 9 8 7 7 7 5 5 5 6 8 10 13 13 12 12 14 13 13 14 13 15 15
9 10 10 11 13 14 12 12 12 11 13 13 11 10 10 10 11 10 9 9 7 9 8 7 7 6 7 11 11 10 10 9 9 9 8 7 7 8 10 14 14 14 15 14 15 14 15 16 17
12 13 14 13 12 13 12 12 13 13 14 16 17 15 13 13 12 13 13 11 11 9 9 8 7 7 7 7 10 13 13 12 12 12 11 10 10 9 10 10 11 14 16 16 16 15 16 15 16
13 14 16 17 14 10 11 13 15 15 16 15 17 18 16 17 15 14 14 14 14 12 12 11 10 9 9 8 8 9 12 14 15 14 14 14 13 12 12 12 12 13 13 15 16 16 16 16 15
16 16 18 19 17 14 11 15 16 17 16 16 16 17 17 17 18 17 16 16 16 16 15 15 14 14 12 10 9 10 10 11 13 15 17 17 17 17 16 15 15 15 15 16 16 17 18 16 16
19 16 18 20 18 16 15 14 17 15 18 17 19 18 17 16 17 19 18 17 17 17 18 18 19 17 16 16 15 13 12 12 12 12 12 15 20 20 19 19 20 19 19 19 19 20 19 20 20
21 18 19 20 20 19 19 18 20 20 19 21 19 21 21 17 16 18 19 19 18 18 19 19 20 21 21 20 19 19 18 16 15 15 14 14 14 16 19 21 22 23 24 24 24 23 23 24 24
21 20 21 21 20 21 25 26 25 23 20 24 24 24 24 21 20 20 19 19 18 19 20 21 21 22 22 23 23 23 22 22 21 20 19 18 17 17 17 18 19 20 22 23 26 28 28 29 28
21 21 23 23 24 23 26 29 28 24 20 27 23 25 29 27 23 20 22 23 20 21 21 21 23 22 22 23 24 24 23 23 23 25 25 24 23 21 21 21 21 21 22 22 24 24 26 28 31
21 23 24 27 28 29 29 28 26 26 26 24 25 27 28 30 33 29 25 23 25 22 22 22 23 22 22 22 21 22 23 22 22 23 25 29 28 27 26 27 26 25 25 25 26 26 27 28 28
23 25 26 30 31 31 29 29 28 28 25 24 27 27 29 31 34 34 30 28 27 25 24 23 23 23 22 22 24 24 25 26 25 25 25 27 30 31 30 31 30 31 31 30 30 29 29 28 29
27 28 29 29 32 32 31 30 31 31 26 27 28 31 31 35 35 33 33 32 31 29 27 25 23 26 28 25 26 27 27 29 30 30 29 27 27 30 31 33 33 33 35 34 35 35 34 33 32
32 33 30 33 37 36 36 32 35 34 31 26 30 32 34 36 35 32 32 33 32 31 31 32 28 26 28 30 30 31 31 32 33 33 33 32 30 30 32 33 33 34 35 36 38 38 37 36 36
36 39 36 35 38 39 39 37 34 35 36 27 30 33 37 34 36 33 33 34 33 33 31 29 32 31 29 31 33 32 34 34 33 34 35 37 36 37 37 38 36 37 37 38 38 39 38 39 39
39 42 40 40 39 40 40 41 40 31 35 29 31 34 34 35 32 30 31 34 33 34 35 31 29 31 32 31 34 36 36 36 35 35 36 36 37 39 41 42 42 41 40 41 42 41 40 41 41
42 43 43 44 43 46 48 43 43 43 38 36 38 35 32 31 32 33 32 33 35 34 34 36 34 31 33 34 33 35 37 39 39 37 35 35 35 35 36 39 44 46 44 44 46 47 46 43 41
42 45 48 47 50 53 50 48 44 42 42 43 42 35 31 34 36 37 37 36 36 36 36 35 35 33 33 32 33 35 34 34 39 40 40 40 41 40 39 38 38 40 42 46 49 50 49 47 46
48 50 50 53 51 53 49 48 42 39 44 44 45 44 41 38 39 39 40 40 39 40 41 40 39 39 39 40 39 41 41 42 40 42 44 45 44 41 37 39 42 41 40 41 44 49 50 50 46
46 47 48 49 48 45 49 49 42 41 44 45 43 42 40 37 36 38 37 37 38 39 38 37 37 38 39 42 44 45 45 46 47 46 45 45 46 46 42 39 41 44 42 42 44 45 47 49 49
44 45 45 44 47 47 47 52 46 49 49 48 48 46 46 41 40 36 38 40 42 42 42 41 41 39 37 41 42 45 48 51 51 51 49 46 47 48 47 45 45 47 48 48 49 51 51 52 52
45 46 45 45 47 51 49 53 51 52 51 51 52 50 48 45 44 46 41 37 37 40 42 43 42 42 44 46 47 49 48 50 53 54 54 53 51 53 56 57 55 54 55 54 54 56 56 56 56
45 48 48 49 50 54 51 53 54 53 52 51 51 51 50 47 45 47 45 44 46 43 40 45 45 50 55 55 54 56 55 56 57 58 60 59 61 60 58 60 63 62 61 62 61 61 62 62 61
47 49 48 51 53 54 54 56 54 52 52 53 53 53 52 51 52 52 54 54 53 49 48 53 56 55 59 60 61 59 62 61 63 64 64 66 70 69 69 70 68 67 69 70 69 66 66 68 69
48 49 49 51 52 51 50 54 50 52 53 54 53 54 55 54 54 58 58 58 57 55 54 57 60 60 60 61 62 64 67 71 72 73 73 72 73 79 79 79 77 76 76 75 75 73 72 72 74
51 53 55 58 58 57 54 53 52 51 52 54 55 55 56 58 61 63 64 64 64 61 59 61 63 66 68 69 69 69 71 75 79 81 83 85 85 87 88 88 90 90 83 82 82 82 81 79 80
52 53 55 54 55 56 52 47 50 50 50 52 55 59 60 61 62 64 66 66 66 67 67 68 69 71 72 73 74 74 74 76 77 79 81 83 87 90 90 92 89 87 85 85 86 86 87 86 85
51 50 49 51 53 55 55 52 51 54 55 58 59 60 61 63 65 66 69 69 70 72 74 76 77 79 80 77 72 75 73 74 79 81 80 76 78 81 86 89 91 87 87 84 80 83 83 83 85
50 46 49 53 54 56 58 58 54 55 56 57 59 61 62 65 67 69 73 75 75 75 74 75 75 73 72 74 77 77 76 83 88 84 82 77 77 80 82 87 91 90 90 80 73 74 79 84 83

GFSSGP_500_spd_024.txt.gz
Wind_Speed
6 8 9 10 11 11 11 10 9 9 9 9 8 8 10 10 10 10 9 10 9 5 5 5 5 4 2 2 3 4 2 1 2 7 11 13 14 15 15 17 14 15 13 14 12 12 11 11 11
6 7 7 9 9 10 11 11 10 9 9 8 7 7 7 9 9 8 8 9 10 9 7 5 6 6 5 4 3 2 1 1 1 3 4 6 10 13 13 13 12 11 14 13 11 11 11 11 11
7 8 8 9 10 11 12 11 11 10 11 11 11 9 8 8 8 8 8 8 8 9 9 8 7 6 7 8 7 5 5 5 4 3 4 5 6 8 11 13 12 10 11 11 12 11 11 13 13
9 11 10 10 11 13 12 10 9 11 12 12 12 12 11 10 10 9 8 8 8 7 8 8 8 7 6 6 9 10 8 8 8 8 7 7 6 7 8 10 13 12 12 13 14 14 15 15 15
11 12 12 11 12 14 13 12 12 12 14 15 13 12 12 13 12 12 11 11 9 9 7 8 8 8 7 7 7 8 11 12 11 10 10 10 9 9 9 10 11 13 15 15 15 16 16 15 15
13 15 17 15 11 11 12 11 12 12 12 11 15 14 14 15 14 14 12 12 12 11 12 10 10 9 9 8 7 8 8 9 12 14 14 13 13 12 12 12 13 13 14 15 16 17 17 16 17
17 17 19 20 17 12 9 12 14 14 14 14 12 13 11 10 12 14 15 13 13 14 14 14 13 13 13 12 11 10 10 10 10 10 14 16 17 17 16 16 15 15 16 16 17 17 17 18 18
18 19 21 21 19 16 14 12 15 16 18 18 18 17 15 10 10 10 12 13 14 15 16 17 17 17 16 16 16 15 15 14 12 13 12 14 17 20 21 19 19 19 19 19 19 19 19 20 19
21 19 19 19 19 18 17 16 16 19 19 22 21 23 21 18 15 13 13 12 12 14 15 18 19 19 19 20 20 20 19 18 18 18 15 15 16 16 18 21 23 23 23 23 23 23 23 23 23
21 21 19 19 19 21 22 22 22 21 18 20 20 23 24 23 21 19 17 15 14 14 15 17 19 20 19 20 23 24 24 23 23 23 22 21 19 19 20 21 21 22 24 25 26 27 27 28 28
19 20 20 21 21 23 24 26 28 26 22 20 21 25 28 27 23 20 21 24 21 18 19 18 18 19 20 20 21 23 25 26 26 26 26 26 26 26 25 25 25 24 24 25 26 26 27 29 30
17 22 21 25 26 26 26 26 27 26 23 26 24 23 27 28 29 25 23 22 23 24 23 22 21 20 21 21 21 22 22 24 26 27 26 26 27 30 31 31 30 29 29 28 29 28 29 29 29
22 23 24 25 29 29 28 28 26 26 26 27 33 33 28 27 27 27 28 26 24 24 25 24 24 23 24 23 23 24 24 25 26 28 28 28 28 29 32 35 35 35 35 35 34 33 32 32 31
25 25 25 28 31 31 31 29 29 29 27 30 34 35 35 31 27 25 25 27 27 26 28 26 25 25 26 27 28 28 28 29 29 30 31 31 30 29 31 33 35 37 38 39 39 39 38 37 36
28 27 28 32 34 33 34 31 33 32 31 32 35 36 33 32 31 27 27 28 30 29 28 27 30 28 28 30 32 31 32 33 33 34 34 35 34 35 35 34 34 36 36 38 40 42 42 41 41
34 34 32 33 33 34 35 32 30 31 34 36 37 36 34 33 34 34 32 31 29 29 31 31 27 29 32 31 30 32 33 33 35 36 37 38 38 39 39 39 39 40 38 38 39 42 42 43 43
37 39 36 32 34 36 37 35 33 33 36 38 36 34 32 34 36 37 36 33 31 29 29 29 30 29 28 30 32 32 34 36 38 38 38 39 41 41 41 43 44 45 44 43 43 44 45 46 46
38 38 37 36 35 39 42 40 41 41 41 39 37 35 32 32 32 33 33 34 34 34 33 32 31 32 33 32 33 35 37 38 37 39 40 40 41 43 44 45 46 48 47 46 47 48 49 48 48
39 39 40 38 41 45 42 44 41 42 42 40 34 32 35 37 38 40 40 39 39 39 38 40 39 37 37 37 35 36 37 36 37 38 39 39 40 40 40 42 44 45 46 47 48 48 49 50 52
41 42 41 42 41 42 41 42 39 37 38 39 38 37 36 35 35 38 40 41 41 40 39 38 37 38 37 38 41 41 41 43 44 44 45 46 46 46 46 45 45 48 49 49 49 48 49 51 52
39 37 38 39 38 43 45 44 38 39 39 38 41 40 39 39 37 35 35 38 41 42 44 45 45 43 42 40 40 42 45 45 47 48 49 49 50 51 50 48 47 48 49 49 49 48 48 49 51
36 36 38 39 43 43 44 48 42 40 42 43 42 43 43 44 41 40 40 40 38 38 40 44 46 49 47 47 47 45 44 44 45 48 50 51 51 54 54 53 52 51 50 49 49 50 51 51 50
37 39 40 41 42 44 44 47 50 48 48 48 48 47 47 43 44 44 42 42 45 41 41 42 42 44 48 50 52 53 50 53 52 52 54 56 55 54 57 59 59 60 59 58 57 55 53 55 55
37 37 39 41 43 46 43 47 51 49 48 46 46 47 46 45 46 46 46 46 47 50 47 45 45 46 48 50 52 55 56 58 59 61 61 60 62 61 62 63 65 67 68 66 66 64 63 62 62
39 38 41 45 45 46 45 47 46 46 51 53 53 53 50 50 49 50 51 50 51 52 53 55 54 53 52 53 54 62 62 63 67 71 69 67 68 68 67 68 70 71 74 74 73 71 67 67 69
42 41 40 44 47 47 50 53 53 54 56 54 55 54 51 51 52 52 54 54 56 58 59 61 61 60 59 59 60 62 68 70 70 72 75 76 73 74 77 75 76 78 79 81 82 82 80 77 76
42 46 46 51 52 55 57 60 59 58 56 55 53 52 53 54 55 58 59 60 61 63 64 64 65 67 68 67 66 67 69 72 74 76 77 78 80 80 80 82 85 87 89 88 87 87 89 88 86
50 52 54 56 58 61 60 57 57 54 54 53 52 53 55 57 59 61 64 65 65 66 68 69 68 69 69 70 72 74 76 76 78 80 82 83 84 85 86 86 88 88 89 92 95 96 94 93 93
50 51 52 53 56 59 59 56 54 53 54 54 55 56 59 61 63 65 67 69 70 71 72 74 75 75 76 78 80 81 81 82 82 84 83 84 84 83 82 84 85 85 86 91 91 88 85 85 87
48 49 50 54 55 56 60 55 54 56 58 58 59 62 64 65 66 67 68 71 74 76 77 78 79 80 81 82 83 84 85 86 88 88 87 87 84 82 83 89 89 86 87 91 92 91 88 85 83

GFSSGP_500_spd_027.txt.gz
Wind_Speed
7 8 9 9 10 11 11 11 10 8 8 8 10 10 11 11 12 12 11 11 11 10 6 2 3 3 3 3 3 4 3 2 0 4 8 10 11 13 15 15 16 17 12 10 13 13 14 14 14
6 7 8 8 9 10 12 12 10 9 8 8 7 9 8 10 10 10 10 10 9 9 10 7 4 3 3 3 3 3 2 2 1 3 3 5 7 10 13 13 12 14 12 11 10 11 12 11 11
6 8 8 9 9 10 11 13 12 11 11 10 10 9 9 8 7 8 8 8 8 8 7 7 7 5 3 4 4 3 4 3 4 4 3 4 6 7 9 12 12 12 11 11 10 12 12 12 13
8 10 11 12 12 11 11 10 11 13 12 11 11 10 9 9 9 9 9 9 8 8 7 7 7 6 6 5 4 5 6 6 6 6 6 6 6 6 8 9 10 12 12 12 12 12 13 14 15
11 13 13 13 13 13 12 9 9 11 13 13 10 10 9 10 10 10 11 11 11 10 10 9 8 8 8 7 6 5 5 7 9 9 9 9 8 9 9 9 10 11 13 14 14 14 14 15 16
13 15 16 15 14 14 13 11 11 12 12 13 14 11 9 7 6 7 9 11 12 12 12 13 12 11 10 9 9 8 8 8 8 10 12 13 12 12 12 13 12 12 13 14 15 16 16 17 18
15 18 19 17 13 11 12 13 14 13 14 16 16 16 14 11 11 11 9 8 11 13 13 14 15 15 14 14 13 13 11 10 10 10 11 12 16 16 16 16 16 16 16 17 17 17 17 18 20
19 22 21 19 16 12 12 13 15 16 18 19 20 18 16 14 14 14 14 12 12 13 13 13 14 16 17 17 17 16 17 16 15 14 13 13 14 16 18 19 20 20 20 21 20 20 20 20 20
22 23 21 19 17 15 15 15 16 18 20 23 20 20 17 15 14 15 18 17 15 15 15 15 14 15 15 16 18 19 20 20 21 20 19 18 18 18 18 18 21 23 24 24 24 24 24 23 23
25 22 20 18 18 18 17 18 18 20 21 21 22 21 20 19 17 16 16 18 17 17 18 18 19 18 17 17 18 20 21 23 24 24 25 24 23 23 22 22 23 23 24 25 27 27 27 27 27
22 20 18 19 20 21 21 22 22 23 22 19 19 24 24 21 18 17 18 19 20 19 19 21 21 20 20 20 20 20 21 22 24 26 27 27 27 27 28 27 27 27 28 28 27 28 28 29 29
19 22 23 25 24 23 23 23 24 25 26 27 24 25 25 25 24 24 21 19 19 21 22 23 23 24 24 24 23 24 24 24 24 25 26 27 28 29 31 32 32 31 31 32 32 32 31 32 31
21 24 24 26 29 26 25 26 25 24 27 29 31 30 28 27 26 25 26 24 23 21 23 25 24 26 27 27 28 28 28 28 28 27 28 29 30 30 31 32 33 34 36 36 36 37 35 35 35
25 24 25 27 28 28 28 29 27 26 28 28 29 30 31 30 28 27 27 28 28 27 26 27 27 27 28 30 31 31 31 32 32 31 31 31 32 33 34 34 35 34 35 38 40 40 40 40 40
28 25 25 28 28 30 31 29 30 28 29 28 29 33 33 31 30 30 29 29 29 30 30 29 30 30 30 31 33 35 35 34 34 34 34 34 34 35 37 39 39 40 39 38 38 40 42 43 44
30 29 28 29 29 30 32 26 28 28 30 32 33 34 35 34 32 32 33 33 32 31 30 29 29 30 30 32 34 35 36 38 38 38 39 39 38 38 40 41 42 45 46 44 43 42 42 43 43
32 33 29 28 30 33 34 28 28 30 35 36 36 36 34 32 32 33 32 33 33 31 31 30 31 32 32 32 33 34 35 35 38 41 43 43 43 42 42 43 45 46 48 50 50 49 49 48 47
34 34 34 30 31 36 36 36 32 35 35 36 34 34 33 32 32 32 32 32 32 34 36 37 35 35 36 37 36 35 36 40 41 41 43 44 46 46 46 45 46 47 49 50 51 52 53 53 54
37 38 38 34 35 37 35 37 33 35 34 33 31 29 30 30 32 36 39 40 40 40 39 37 37 36 35 37 39 41 41 40 41 44 46 46 46 46 47 47 48 49 50 49 50 52 53 53 54
42 41 36 38 37 37 35 33 32 34 35 34 33 33 31 32 34 35 36 38 40 41 41 42 43 39 36 37 38 39 41 44 47 47 48 48 49 50 51 50 49 49 50 52 53 53 54 55 55
39 36 36 37 35 36 38 38 34 35 36 36 35 35 36 38 39 40 39 38 38 38 39 41 43 46 47 45 44 42 42 44 46 49 51 54 56 56 55 55 55 55 54 55 56 56 56 56 57
36 34 37 37 40 40 42 45 39 35 37 38 37 38 39 40 40 41 41 42 41 41 41 41 42 44 45 46 48 49 48 48 47 49 51 53 55 59 59 57 57 58 58 57 56 58 59 59 58
34 36 38 41 42 46 41 44 46 42 42 40 39 38 38 40 43 46 47 47 47 47 47 48 47 47 47 48 50 51 53 54 54 55 56 56 57 58 61 60 60 60 61 62 63 63 61 61 60
37 39 42 44 46 51 42 44 50 45 44 42 43 44 45 48 49 52 52 52 52 50 50 51 53 53 52 52 52 54 56 58 60 61 63 63 63 63 65 65 66 66 67 68 67 69 71 72 71
41 42 43 46 45 48 49 48 46 45 46 46 47 51 54 56 55 55 57 55 54 53 52 53 55 56 56 57 59 61 61 62 62 63 66 69 70 71 70 71 73 72 72 72 74 74 74 74 76
43 44 45 45 47 47 46 52 51 52 52 53 56 57 57 58 57 58 59 58 56 56 57 59 61 62 63 64 66 67 68 68 69 69 70 70 72 79 83 83 83 83 83 81 82 84 84 83 79
43 43 40 45 47 49 52 55 55 56 55 55 56 56 56 56 55 56 56 57 59 63 65 66 66 67 68 68 69 71 72 73 73 75 77 77 78 81 84 87 86 87 89 87 83 85 86 88 89
41 41 44 47 51 57 58 58 58 53 53 53 54 54 55 56 57 58 60 63 65 67 68 70 70 71 72 74 75 76 77 76 76 77 78 81 83 85 86 88 90 92 93 93 91 89 88 90 91
44 48 50 48 53 56 57 61 58 54 55 57 58 57 58 58 61 63 65 67 68 70 72 74 75 75 76 77 78 79 80 81 82 82 83 84 85 86 90 92 93 93 92 94 96 99 96 92 89
50 48 46 50 53 53 57 63 59 57 58 58 58 58 60 64 67 69 70 71 73 74 75 77 78 79 80 80 81 83 84 85 86 87 88 89 88 88 88 89 91 95 98 98 97 98 98 99 96

GFSSGP_500_spd_030.txt.gz
Wind_Speed
9 10 10 12 12 14 13 12 11 10 9 10 10 10 11 11 11 12 12 12 11 12 10 5 3 3 3 3 3 4 4 3 2 0 2 5 8 9 9 9 11 11 12 12 10 11 13 13 13
7 8 9 11 12 13 13 13 11 12 11 10 10 9 9 9 9 9 9 9 10 10 9 10 8 4 4 4 4 3 2 2 1 0 0 1 3 5 6 7 9 9 10 9 9 9 11 11 12
6 8 10 11 13 12 13 12 11 12 12 11 9 9 9 10 10 10 9 8 8 8 8 8 8 9 7 4 4 4 4 4 3 2 1 2 3 4 4 5 7 8 8 8 8 9 10 12 12
7 9 10 11 12 11 12 11 11 12 13 12 11 10 11 10 10 10 10 9 9 8 8 8 7 6 6 7 5 4 5 6 6 6 5 5 6 5 6 6 7 9 10 10 10 10 11 12 13
9 11 12 13 13 10 9 9 9 11 12 12 12 13 12 11 9 8 7 7 7 8 8 9 9 8 7 6 7 6 6 6 8 9 9 8 9 9 10 10 10 10 11 12 13 13 13 13 13
11 13 15 15 14 13 10 9 10 9 11 12 13 13 12 11 11 12 12 12 9 8 9 10 9 10 10 10 9 8 8 9 8 8 10 12 13 12 13 13 13 13 14 13 14 14 16 16 16
13 17 17 17 15 13 12 12 11 11 12 15 15 13 11 11 13 13 14 14 15 14 13 13 13 12 11 12 13 12 11 10 11 11 11 12 13 15 17 16 17 17 17 17 17 17 17 17 18
17 20 21 20 16 14 13 13 13 14 16 17 19 14 11 10 11 14 15 16 16 15 14 14 14 16 15 15 15 16 16 16 15 15 15 15 16 16 15 17 20 21 21 21 20 20 20 20 21
20 22 23 19 16 14 13 14 14 17 19 20 19 16 14 12 12 12 14 14 14 15 16 16 15 15 15 16 17 17 18 19 20 21 20 19 20 19 19 18 19 20 22 25 25 24 24 24 24
23 24 21 17 16 15 15 17 17 17 19 20 20 13 13 15 14 14 13 14 15 16 17 19 20 19 19 18 18 18 19 21 22 23 24 24 25 25 25 23 22 23 23 23 24 26 28 28 28
25 24 19 17 17 18 18 18 19 20 20 17 18 19 19 17 17 16 17 18 18 19 19 20 22 23 23 23 24 24 23 23 22 23 25 26 27 28 29 30 29 28 27 26 26 26 26 28 29
22 20 20 21 21 19 19 20 21 25 21 21 19 19 19 20 21 21 21 20 20 20 21 23 24 25 25 26 28 29 29 29 28 27 26 25 26 28 31 32 32 33 33 33 32 32 30 30 30
19 21 23 25 24 22 21 21 23 26 26 24 24 21 19 17 18 22 23 22 22 22 22 22 23 25 27 29 30 31 32 32 32 32 30 30 29 29 30 32 34 34 35 36 36 37 37 36 36
23 25 26 26 26 23 23 24 26 26 28 27 25 26 24 22 24 24 25 25 25 25 24 24 24 25 27 30 31 32 33 34 35 36 35 34 34 34 33 34 35 36 37 37 37 37 39 40 42
27 25 24 24 25 27 26 25 28 26 28 27 26 26 27 28 29 28 27 27 27 27 28 27 26 28 29 29 30 33 33 35 37 38 38 39 39 39 39 38 38 39 40 41 41 40 41 41 41
27 26 25 26 26 28 27 24 28 27 29 29 29 30 31 32 32 32 31 30 28 27 28 29 30 28 29 31 32 32 33 35 36 39 41 42 42 43 43 44 44 45 45 45 45 45 45 45 45
29 27 24 25 26 31 32 26 27 31 32 31 30 32 32 33 33 31 31 30 30 30 31 32 31 32 33 35 36 36 36 37 37 38 40 42 44 46 46 46 47 48 49 50 50 51 50 49 49
30 29 30 28 31 36 37 35 28 34 33 32 31 27 26 27 28 29 30 31 32 33 34 35 35 35 35 35 37 39 41 41 41 41 42 44 45 46 48 50 51 51 52 52 52 54 54 56 53
35 35 35 33 37 38 36 36 32 35 32 29 29 29 29 29 29 29 29 31 34 37 37 38 38 38 39 39 40 40 41 42 44 46 46 48 49 50 51 51 52 53 52 52 53 55 56 56 55
39 40 39 39 38 37 35 32 33 32 32 34 33 31 30 30 31 32 32 33 35 36 39 40 40 41 42 43 45 45 46 47 47 46 48 50 52 54 56 56 55 54 55 55 54 54 54 56 57
43 42 40 39 36 35 36 35 32 33 37 39 38 36 33 32 32 34 34 35 35 35 37 37 39 42 43 45 46 48 50 52 52 52 53 53 53 55 57 59 60 61 60 59 59 59 58 58 59
41 37 37 36 37 37 38 42 38 35 37 36 36 36 36 36 35 34 34 36 38 41 42 43 45 47 49 50 50 51 53 53 55 56 56 56 56 57 58 59 60 61 62 62 62 61 61 60 60
36 36 37 37 38 41 41 45 47 42 36 35 36 36 35 34 36 38 40 42 46 49 52 53 52 51 52 54 56 56 57 57 59 60 60 61 61 61 62 62 65 66 66 66 65 65 65 65 65
37 37 38 39 41 46 39 44 50 44 42 40 35 34 37 39 41 43 45 48 51 53 55 55 56 54 55 55 55 56 57 57 58 59 61 63 65 67 68 68 70 70 71 72 72 71 71 69 69
38 39 41 43 43 46 46 47 46 47 45 43 42 45 45 46 47 50 51 53 55 56 57 57 57 57 56 57 58 60 61 62 64 65 67 69 71 71 72 74 75 76 78 78 78 79 78 77 75
41 42 42 43 46 48 47 47 47 47 45 44 47 47 46 48 49 52 53 54 57 58 59 59 60 59 59 60 63 65 66 68 70 71 72 73 74 75 77 78 78 78 80 82 84 84 84 87 88
42 44 40 46 47 50 53 52 49 50 51 52 49 49 50 50 51 54 57 58 59 60 61 61 62 64 65 67 68 71 72 73 75 75 77 78 79 80 81 83 85 86 88 87 86 87 87 86 87
45 45 45 44 46 53 56 55 56 55 54 52 51 51 52 53 57 59 61 62 62 63 65 66 68 70 71 73 75 74 75 76 76 76 76 78 79 81 82 84 86 88 88 91 92 94 94 94 93
45 49 47 45 50 52 57 59 62 60 56 57 55 54 54 56 59 61 63 64 65 67 70 72 73 74 76 78 78 77 77 77 77 78 79 81 83 85 87 88 89 89 90 91 92 92 95 98 99
50 49 47 50 51 54 60 62 61 59 57 56 55 56 58 60 63 65 65 66 68 71 73 74 76 77 78 78 79 80 81 81 82 83 84 86 87 88 88 89 89 90 91 92 93 92 93 93 95

GFSSGP_500_spd_033.txt.gz
Wind_Speed
11 12 13 14 16 16 16 14 13 13 12 11 11 12 12 11 11 11 12 13 12 12 12 9 4 3 3 4 4 4 4 4 3 3 4 6 5 5 5 7 8 9 9 10 10 10 11 12 13
10 11 12 14 14 14 13 12 12 13 13 12 12 11 10 9 9 10 10 10 10 10 9 9 9 7 3 1 1 1 1 2 2 3 2 2 3 3 5 6 7 7 7 8 8 8 9 12 14
8 10 11 12 12 11 10 8 9 12 13 14 14 14 13 11 8 7 7 6 6 7 7 8 7 7 8 6 3 2 2 2 2 2 2 3 4 5 5 6 8 8 9 8 8 8 9 12 13
7 9 10 11 11 10 8 8 8 9 11 13 13 13 12 12 11 9 7 5 4 4 4 5 6 6 5 6 7 7 5 5 5 4 5 5 6 6 7 8 9 9 11 10 10 10 11 13 14
6 8 11 13 12 9 8 7 6 8 8 10 11 11 10 11 10 10 10 10 9 8 7 7 7 7 7 7 5 6 6 7 7 8 9 8 9 9 10 10 10 10 10 12 14 13 14 15 15
8 10 13 16 14 11 8 7 6 6 9 8 10 9 8 8 10 10 10 10 9 10 11 10 9 10 10 10 10 10 9 9 8 8 9 11 12 13 13 13 13 13 13 13 13 15 16 17 17
11 13 15 17 16 12 10 7 6 7 9 10 10 10 7 8 9 10 12 12 11 9 8 9 10 9 10 11 13 13 14 13 13 13 12 12 13 13 15 17 17 17 17 16 16 16 16 17 18
13 15 17 19 16 13 9 8 8 8 10 11 11 9 5 6 7 10 11 12 14 13 12 12 12 13 12 11 11 13 15 16 18 18 18 17 18 17 16 16 17 19 21 21 20 20 19 20 20
16 16 18 18 15 10 10 10 11 12 11 12 12 10 6 7 7 7 9 11 12 13 14 16 16 16 16 17 18 17 15 16 18 20 21 22 23 23 22 21 20 21 21 20 21 23 24 23 24
19 20 20 17 13 11 12 12 13 13 13 13 11 9 8 10 10 9 10 13 14 14 14 16 17 19 21 20 20 21 22 23 21 21 22 23 25 27 27 27 26 26 26 24 24 24 23 24 26
23 22 19 14 14 15 15 15 15 16 14 14 15 12 11 11 11 12 13 15 16 17 17 17 17 19 20 22 24 26 26 26 26 26 26 25 25 27 29 30 30 30 31 31 30 29 28 27 27
22 19 17 16 17 17 17 16 16 17 16 18 17 16 15 15 14 13 14 16 17 17 18 18 19 19 20 22 22 24 27 28 29 30 30 29 29 29 29 30 30 32 33 34 34 34 34 33 33
20 19 20 20 19 17 18 17 18 18 19 19 18 16 15 16 16 16 20 20 19 19 19 20 21 23 23 24 25 26 27 28 30 32 33 33 33 33 33 33 33 33 33 35 35 35 36 36 37
21 23 23 23 21 19 19 20 21 20 20 19 18 18 17 17 17 19 21 21 21 21 21 21 21 21 23 26 27 27 28 30 32 33 34 35 37 37 37 37 39 39 38 38 38 38 38 37 37
25 24 24 24 23 22 23 23 23 23 24 22 21 21 21 23 23 24 23 21 19 18 19 20 22 24 24 24 25 26 28 30 31 33 36 38 39 41 42 41 42 43 42 43 43 42 41 42 42
27 26 24 23 24 25 24 24 24 25 26 26 26 25 26 27 26 24 23 21 20 19 19 22 23 24 25 27 28 30 30 31 33 35 36 38 41 43 44 45 46 46 46 47 48 48 47 46 46
29 25 23 22 24 25 26 24 28 30 30 30 30 30 30 30 27 26 25 24 22 22 21 23 25 28 30 32 32 34 35 35 35 36 38 41 42 43 45 46 48 50 51 51 51 52 52 52 52
28 27 25 23 27 30 30 30 29 31 32 31 31 30 28 26 28 29 29 28 26 25 25 25 28 30 32 35 38 38 39 40 40 42 42 43 44 47 49 50 51 52 52 53 54 55 56 58 57
31 29 27 27 32 33 32 33 30 30 29 28 27 25 27 28 28 30 31 29 30 29 31 31 31 32 35 37 40 42 44 45 46 47 47 48 48 48 49 51 54 56 57 57 57 57 57 58 59
31 32 30 32 35 37 36 32 28 26 25 26 25 28 30 31 30 30 29 30 30 29 29 31 34 33 35 37 39 41 44 47 49 51 52 52 53 54 54 55 55 57 58 61 62 62 61 61 60
34 36 35 39 39 38 36 31 27 27 26 28 30 31 31 31 32 31 31 31 31 32 32 33 36 36 38 41 44 46 48 50 53 54 55 56 56 56 57 59 59 59 60 62 62 63 63 64 64
40 39 41 41 41 38 36 36 28 29 29 29 30 32 31 31 33 32 29 32 36 37 42 41 42 44 45 46 48 50 53 55 57 60 60 60 60 59 59 58 60 62 61 62 63 64 66 66 67
42 41 41 41 40 40 37 38 35 32 31 32 32 31 32 35 32 32 34 38 41 44 46 47 48 48 49 51 52 54 57 59 61 63 65 65 65 65 65 65 65 64 66 66 67 68 68 69 70
39 38 39 42 43 43 36 39 43 38 34 32 34 35 32 32 35 38 42 46 47 49 51 51 50 50 51 54 55 57 59 59 60 61 62 64 64 66 68 69 70 71 72 73 74 74 72 71 72
38 39 42 43 43 42 41 42 41 41 38 34 32 33 33 35 42 45 48 50 51 51 50 50 52 54 56 56 56 57 58 59 60 62 64 67 70 72 73 74 76 77 77 78 79 78 77 77 77
40 42 42 43 43 45 44 44 44 39 38 38 37 36 40 44 47 48 49 50 54 56 55 57 60 60 59 59 60 61 62 63 65 67 69 71 74 76 79 80 81 82 82 81 81 81 81 83 84
42 44 40 45 47 47 46 46 44 43 42 41 40 45 48 50 50 51 53 55 57 58 58 62 63 63 64 63 64 66 68 69 70 72 75 77 78 78 79 80 81 82 82 83 84 86 88 89 90
45 44 47 48 48 48 49 47 47 48 49 43 44 47 48 51 56 59 59 58 60 60 61 64 65 66 66 66 68 71 73 74 76 77 78 78 78 79 79 80 80 82 82 82 84 86 88 88 89
47 48 49 49 50 49 50 53 54 55 51 48 48 50 53 58 59 59 59 61 60 61 64 67 68 68 70 71 74 76 77 78 80 80 80 80 80 79 78 79 80 81 83 84 86 87 88 88 89
50 50 50 51 49 48 52 53 56 54 52 53 53 55 59 61 60 61 62 62 63 66 68 69 70 71 73 75 77 77 78 78 78 78 78 78 78 79 80 81 83 85 86 87 88 88 89 90 90

GFSSGP_500_spd_036.txt.gz
Wind_Speed
11 12 13 14 14 14 12 12 14 13 12 13 12 10 9 9 9 9 10 12 12 12 12 10 5 3 3 2 3 3 2 2 4 9 11 11 11 12 13 14 15 15 15 16 15 15 14 15 15
9 10 12 13 13 12 11 11 13 14 13 13 12 11 9 7 5 6 6 6 7 8 8 8 8 8 4 0 1 0 0 1 2 3 5 7 8 9 10 12 12 13 12 12 13 13 13 14 14
7 9 11 13 12 10 8 8 9 11 12 11 10 10 10 8 7 7 6 5 4 5 6 6 6 6 6 6 3 2 2 3 3 4 4 5 7 8 10 10 10 11 11 11 11 11 12 14 14
6 8 10 12 11 9 6 5 5 6 8 9 8 7 7 7 8 8 9 9 8 7 5 5 7 7 6 6 5 4 3 4 5 6 7 7 8 8 8 9 10 10 11 12 12 13 13 14 14
5 8 10 11 11 8 6 5 3 3 4 6 8 7 5 4 5 6 7 9 7 6 6 6 5 6 7 7 7 8 8 7 6 7 9 10 10 11 11 11 11 11 11 13 14 15 16 16 16
5 7 10 12 12 9 6 3 3 3 4 4 6 8 7 6 5 5 5 4 5 5 5 5 5 6 7 7 9 9 10 10 10 10 11 11 11 13 15 13 13 14 14 14 15 16 17 19 19
8 10 11 14 14 10 5 2 4 3 4 6 5 5 4 6 6 7 8 7 6 7 8 8 7 6 6 8 11 12 12 12 13 13 14 15 14 13 15 16 16 17 18 18 17 18 18 19 20
10 12 14 14 14 10 5 3 4 5 5 5 6 4 3 3 5 7 8 9 9 8 9 11 11 11 11 11 10 10 13 16 18 17 17 18 18 18 17 18 19 19 19 19 21 22 21 21 21
13 14 16 17 13 10 7 6 6 6 6 6 6 5 3 5 5 6 7 8 8 9 10 12 13 14 15 15 15 15 15 15 15 18 21 23 24 23 23 22 23 23 23 23 22 22 21 23 24
15 17 18 18 13 10 10 11 10 9 8 8 8 8 8 9 9 10 10 10 11 12 12 13 14 15 17 18 19 19 19 20 21 20 19 19 22 26 28 28 29 28 28 27 28 26 26 25 25
18 19 19 16 14 13 13 13 12 11 11 12 10 11 11 11 12 13 13 13 13 14 15 15 15 14 15 18 19 21 21 22 22 23 24 25 25 25 26 27 29 31 33 33 33 33 31 30 30
20 20 19 16 16 16 17 15 14 13 14 13 14 13 13 14 14 14 13 11 13 13 15 16 16 16 17 17 18 19 21 22 24 26 27 28 28 29 30 31 30 30 31 34 35 37 36 36 36
22 21 20 20 20 19 19 16 15 15 15 16 14 15 15 15 15 15 15 17 16 15 15 15 16 18 19 20 20 20 22 23 24 26 28 30 32 34 35 36 36 36 36 34 33 35 37 39 39
23 23 22 22 22 21 20 18 17 17 17 17 17 17 16 17 17 17 18 20 20 18 16 16 16 17 18 20 21 22 23 23 23 25 27 29 31 34 36 38 40 41 42 41 41 40 37 38 39
25 24 24 24 24 22 21 20 21 20 20 19 19 19 19 20 20 20 22 21 20 18 17 16 16 16 16 17 19 21 22 24 26 28 29 31 33 35 37 40 42 43 45 46 46 47 47 46 44
28 26 26 25 24 25 23 23 22 22 22 22 22 22 23 24 24 24 23 20 19 20 20 20 19 19 19 20 19 21 23 25 27 30 31 33 35 38 40 43 44 45 46 48 49 50 51 51 52
30 28 26 25 26 26 24 23 24 25 25 25 26 26 26 26 26 24 22 22 22 22 22 23 22 22 22 22 25 25 27 29 31 33 36 38 39 41 43 44 46 48 50 51 52 53 53 54 54
31 28 26 25 28 28 27 27 27 28 28 29 29 27 26 24 23 23 25 26 25 25 23 23 26 27 29 28 29 31 31 32 33 35 37 39 41 44 47 48 50 51 52 54 55 55 56 57 58
31 29 27 27 32 32 32 31 29 30 30 31 29 25 25 24 24 25 27 28 29 30 28 26 28 29 31 32 32 33 35 36 37 39 40 43 45 47 49 51 53 55 56 56 58 59 59 60 61
30 32 29 30 34 35 35 32 32 33 32 31 29 27 26 27 28 28 28 28 29 29 30 30 31 31 32 36 38 37 38 39 41 43 46 49 50 52 55 57 58 60 61 62 62 63 64 65 65
34 35 33 35 36 38 37 37 34 34 32 31 31 30 30 30 30 29 28 28 29 31 33 34 36 38 39 40 41 43 45 47 48 50 53 54 56 58 59 61 63 64 65 66 67 66 66 67 67
38 35 37 39 41 41 39 43 32 32 32 31 31 32 32 31 31 31 31 31 32 32 34 39 42 42 44 45 47 50 51 52 54 57 59 60 62 63 65 66 67 67 67 68 68 68 69 69 70
41 39 42 42 43 45 43 41 38 32 32 33 33 33 34 34 31 29 31 31 31 35 40 43 45 46 49 49 53 54 56 56 58 59 61 63 65 66 68 70 71 72 72 71 71 71 70 71 71
45 43 41 43 45 48 39 39 44 32 32 33 34 34 33 33 32 31 31 32 35 40 45 47 50 50 51 55 56 59 59 59 59 63 64 66 66 67 69 70 71 72 74 74 74 75 75 76 77
43 43 45 46 47 45 42 42 42 39 34 32 34 35 34 32 31 31 33 37 42 44 47 50 52 55 56 58 59 60 61 62 63 65 66 67 68 70 72 74 75 76 78 80 80 81 83 83 84
45 46 46 46 45 44 45 46 42 39 39 36 37 35 32 31 33 36 40 42 45 48 50 51 55 59 60 61 61 61 63 65 66 67 68 69 71 73 75 77 78 81 81 82 84 85 85 86 86
46 46 39 43 46 47 47 45 43 42 41 41 38 36 34 36 38 41 45 47 49 50 53 58 60 59 60 62 62 63 66 66 68 69 72 77 79 81 81 81 82 83 83 85 85 85 83 83 84
48 43 44 46 46 46 47 47 47 45 44 43 40 39 38 39 43 46 49 50 52 55 58 61 62 61 62 63 64 65 67 69 70 73 76 79 82 82 82 81 81 81 80 79 79 80 80 80 81
44 46 45 45 46 47 48 47 48 49 47 45 43 41 43 47 49 50 52 53 54 56 60 62 63 61 62 65 67 68 70 73 75 78 80 82 82 80 79 79 79 79 79 79 79 80 81 82 83
47 48 48 50 47 46 48 49 52 51 50 48 47 47 49 52 54 54 56 56 55 58 61 62 62 63 65 67 70 73 75 78 80 81 80 80 80 79 78 78 78 78 79 80 82 83 84 84 84

GFSSGP_500_spd_042.txt.gz
Wind_Speed
10 12 14 14 11 13 13 11 9 9 9 9 8 7 7 8 8 9 9 10 12 12 12 11 8 7 7 7 7 7 8 8 9 7 4 2 5 8 9 9 9 10 13 14 16 17 15 14 14
9 11 13 13 10 12 8 8 8 8 8 8 9 9 8 8 8 7 6 7 8 8 9 10 10 10 9 7 7 8 8 8 7 7 6 5 4 3 4 6 8 9 10 12 13 14 15 15 14
7 9 11 11 14 10 5 4 5 5 5 5 6 7 8 8 6 5 5 5 6 6 6 6 6 6 7 7 7 8 7 7 7 7 6 6 6 6 6 5 6 7 9 10 11 12 13 14 14
5 7 8 10 13 8 3 2 2 2 3 4 4 3 3 5 6 7 6 4 4 3 4 4 4 4 4 4 4 5 5 5 6 6 6 7 8 8 8 9 9 8 9 9 10 12 13 14 15
2 5 7 10 12 8 3 2 1 2 4 4 5 4 1 1 2 2 3 4 4 3 3 2 2 1 1 1 1 2 3 4 5 6 7 7 8 8 9 10 10 11 11 12 12 13 13 14 15
2 5 6 8 10 9 4 4 3 2 4 7 6 6 4 1 1 1 1 1 1 1 2 2 2 2 2 2 2 2 3 4 5 5 6 7 8 8 9 9 10 10 11 12 14 15 16 16 17
3 6 8 9 10 10 6 6 5 5 4 6 6 6 5 3 2 2 2 2 3 3 3 3 4 4 5 4 5 6 6 5 5 5 5 6 8 8 9 10 11 12 13 14 15 15 16 17 19
6 8 9 9 11 11 9 6 7 6 7 7 6 5 7 6 5 5 5 6 6 6 6 6 5 5 5 6 6 6 6 6 6 7 7 7 7 8 9 10 11 13 14 14 16 17 19 20 20
9 11 11 11 12 12 11 7 8 9 9 10 9 8 6 8 9 9 9 9 8 8 9 9 9 9 8 7 7 6 7 7 8 8 8 8 8 8 9 10 11 13 15 16 17 18 19 21 22
12 14 13 13 14 13 11 10 10 12 12 13 12 10 9 9 11 12 12 13 13 11 11 11 11 12 11 9 8 7 7 7 7 8 9 10 10 10 10 13 13 14 16 17 19 20 21 23 25
17 17 16 15 16 14 12 12 13 13 13 13 14 14 12 11 12 13 13 13 13 13 12 12 12 12 12 11 9 9 9 10 10 12 13 13 13 13 12 12 13 14 16 17 19 21 23 25 27
20 19 18 17 17 16 15 15 16 15 14 16 15 16 16 15 15 14 14 13 12 12 13 15 16 15 15 15 14 13 13 12 12 12 13 13 14 15 15 13 13 15 17 19 21 22 24 27 29
21 20 21 20 20 19 17 18 18 16 17 17 16 16 17 18 17 15 13 12 13 15 18 19 20 20 20 19 19 19 17 17 16 17 17 17 16 16 16 16 18 19 20 21 22 24 25 28 29
24 24 24 24 23 22 21 21 18 21 21 18 18 18 18 18 18 18 16 15 15 18 20 21 22 23 22 22 21 22 22 22 22 21 21 21 22 22 23 24 24 26 25 25 27 28 29 31 34
27 28 28 26 27 24 25 23 20 21 22 20 21 20 19 18 18 18 18 18 18 20 21 20 20 22 23 23 22 21 22 23 23 24 24 25 25 25 25 27 28 29 31 33 34 35 35 36 37
28 28 31 28 29 28 29 22 25 24 23 23 23 22 21 20 21 22 21 20 20 21 21 20 19 19 21 23 23 23 21 22 22 24 25 26 28 29 30 32 32 33 34 36 37 38 40 41 43
29 30 32 34 32 31 33 30 26 26 26 24 24 23 23 23 23 23 23 23 23 23 23 21 21 21 23 25 25 24 23 23 24 25 27 31 31 31 32 34 35 38 39 41 42 44 45 47 49
35 34 32 34 33 32 34 32 32 28 28 26 26 24 25 26 26 26 26 26 26 26 25 24 24 25 25 27 27 25 25 24 26 27 30 32 35 36 38 39 40 41 43 45 48 50 51 52 55
37 34 34 32 38 37 37 37 37 32 30 29 29 29 28 29 29 29 29 29 28 29 28 28 29 29 28 29 29 27 25 25 27 30 32 35 34 36 39 42 47 48 48 51 52 52 53 54 57
37 38 37 35 42 41 38 40 36 36 30 33 34 31 31 29 32 32 32 32 30 30 30 31 32 32 30 29 28 26 27 28 30 32 32 35 38 40 44 45 45 46 49 53 56 58 59 60 63
40 41 38 40 44 42 40 41 37 36 36 34 33 36 36 32 33 33 33 33 33 33 34 34 34 33 32 31 30 30 31 32 33 35 38 40 42 44 46 47 48 50 51 54 57 60 63 66 66
42 39 40 38 41 42 42 48 38 36 38 37 33 40 40 36 34 33 33 33 33 35 36 37 37 35 34 34 32 32 34 35 38 41 43 45 45 45 46 47 49 51 54 57 61 64 66 69 70
41 38 39 38 41 46 44 49 37 33 35 35 35 40 41 39 36 34 34 34 35 36 37 39 37 36 35 34 34 36 38 39 43 46 49 50 47 47 49 49 51 54 58 63 65 66 68 69 71
40 39 41 43 44 52 42 44 53 36 37 37 36 38 39 37 36 35 34 35 35 36 37 37 36 35 36 37 39 41 43 46 50 52 53 53 50 51 54 56 57 61 66 68 69 69 71 73 76
42 42 44 48 50 51 47 49 49 43 40 37 36 36 36 35 35 34 35 34 35 36 37 36 36 37 39 41 43 44 48 52 54 55 55 53 53 56 61 63 65 68 69 70 72 74 75 79 82
44 44 45 48 51 53 53 52 47 45 41 34 33 32 33 32 32 32 34 34 36 36 36 38 40 41 43 45 47 50 53 55 56 57 55 55 58 61 64 68 69 70 71 72 75 78 81 85 87
45 48 40 50 52 55 55 52 49 43 35 33 33 31 29 31 32 33 34 35 33 36 38 40 42 45 46 49 52 55 58 59 58 57 58 60 61 64 69 71 70 72 75 77 80 83 86 89 90
50 47 48 52 56 58 56 51 47 42 38 35 33 32 30 30 27 29 32 35 37 37 38 40 42 47 50 51 54 58 60 61 60 60 62 63 66 69 72 72 75 76 79 81 84 87 89 88 86
50 53 54 54 57 59 56 48 48 45 45 40 35 32 31 29 28 30 31 34 37 41 42 44 46 49 52 55 59 61 62 62 63 65 66 68 71 74 73 76 77 80 82 85 88 89 85 83 83
59 57 55 54 54 54 57 46 45 46 44 39 35 34 34 34 34 35 36 36 40 45 48 49 51 52 55 59 62 64 66 66 67 69 71 73 75 76 76 78 80 82 85 87 88 84 84 84 87

GFSSGP_500_spd_045.txt.gz
Wind_Speed
11 12 12 11 8 10 13 13 11 10 10 10 9 9 8 9 8 10 11 11 13 14 14 12 10 10 10 9 9 9 10 10 10 9 5 4 3 2 2 3 5 5 6 7 9 8 8 7 9
10 10 11 12 7 10 11 10 9 8 8 10 9 8 7 8 7 8 8 7 8 9 10 11 12 11 11 9 8 8 8 9 9 10 9 7 7 5 4 3 3 4 5 7 7 8 8 8 8
8 8 10 12 9 10 10 6 6 6 6 8 7 7 7 7 6 5 6 6 5 5 6 6 7 7 8 9 9 9 8 8 7 7 7 6 6 6 6 5 4 4 5 6 7 8 9 10 11
7 7 8 11 12 10 7 2 3 3 5 6 6 3 4 5 6 6 5 5 4 4 3 3 3 3 3 4 4 5 6 7 8 7 7 5 4 5 4 4 4 4 3 4 5 6 8 9 10
4 5 5 7 11 10 5 2 1 2 4 6 6 4 1 1 2 3 3 4 4 4 4 4 4 5 4 3 3 3 3 3 3 3 3 3 4 4 3 2 2 3 5 6 7 9 9 10 11
2 3 4 6 9 11 5 3 2 2 4 4 6 5 2 1 1 1 1 1 1 1 1 1 2 3 4 5 6 6 5 3 2 1 1 1 1 1 2 2 3 5 6 7 7 8 9 10 12
1 2 5 4 7 9 9 6 3 3 5 3 6 6 5 3 1 1 0 1 1 2 2 2 2 2 2 2 2 2 2 2 2 2 1 2 2 3 4 5 5 6 7 9 10 12 13 14 14
3 4 8 8 7 9 10 7 5 5 9 6 5 7 7 6 5 4 3 3 4 4 4 4 4 4 4 4 4 4 3 3 3 2 3 3 3 4 4 4 5 5 6 7 8 10 11 13 15
7 7 9 11 8 7 10 9 7 6 9 10 8 8 7 7 7 7 8 8 7 6 7 8 8 8 7 7 6 5 4 4 3 5 5 6 6 6 7 7 7 8 10 11 11 13 14 16 17
10 10 11 11 11 8 10 9 10 8 10 11 12 10 9 9 9 9 11 10 9 10 10 11 10 10 9 10 9 7 8 7 8 9 8 7 6 6 8 8 8 8 9 10 11 12 13 15 16
13 13 13 14 13 11 12 9 13 11 9 12 14 11 11 12 12 12 12 12 11 11 11 10 10 11 11 12 12 12 12 10 11 10 9 8 8 6 6 6 7 8 8 10 12 12 14 16 18
16 15 16 16 15 14 14 13 14 12 12 14 16 15 14 14 13 13 12 11 11 12 11 11 13 14 14 15 16 16 16 16 16 15 14 13 12 11 11 9 10 12 14 16 16 17 16 19 20
18 18 17 16 17 17 17 17 15 15 18 16 16 17 17 16 15 13 12 10 10 11 13 15 16 18 17 19 19 19 20 20 19 19 18 17 16 16 16 16 17 18 19 19 20 23 24 25 27
19 19 19 20 21 21 21 20 17 18 20 20 17 18 18 17 18 16 15 13 14 14 15 17 18 19 18 20 20 19 19 21 20 21 20 19 20 20 19 20 21 23 23 24 26 28 30 31 33
22 23 23 23 24 22 24 21 19 22 20 23 20 20 20 19 20 19 18 16 17 16 18 18 18 16 15 17 17 18 19 20 21 20 20 21 21 22 23 25 27 28 29 30 30 32 33 34 37
24 24 24 24 25 25 26 19 25 24 23 23 23 22 22 21 21 21 21 20 20 20 20 21 20 19 17 15 18 19 20 20 20 22 22 23 24 25 27 27 28 28 31 32 35 37 38 39 39
25 28 29 28 27 28 29 25 26 28 25 26 25 24 24 23 22 23 24 23 23 24 25 24 24 22 21 20 20 22 23 22 22 24 25 25 26 28 30 31 32 32 34 35 37 38 39 41 42
31 30 31 31 32 32 31 30 31 28 28 26 26 26 27 27 24 25 27 27 26 26 27 28 27 26 25 25 26 27 28 29 27 26 26 29 30 31 32 32 34 36 37 37 39 40 42 43 45
33 34 33 34 36 38 37 34 34 34 31 26 27 29 28 29 28 29 29 29 27 28 28 29 30 29 28 29 30 31 32 30 26 27 28 29 30 33 33 37 38 39 40 40 40 43 44 46 50
34 36 35 37 43 46 44 40 37 37 32 30 29 28 29 30 30 33 32 31 31 29 30 31 30 31 32 32 33 33 34 33 32 31 32 32 34 35 37 39 41 43 45 45 46 47 48 51 53
36 37 38 43 45 48 47 44 38 35 32 28 28 29 30 31 34 36 35 34 33 32 31 32 32 33 33 34 34 35 35 35 35 34 33 35 37 40 42 44 47 49 49 48 51 54 54 56 59
40 41 42 42 45 45 43 46 34 29 32 31 29 32 34 33 34 37 37 36 35 33 32 32 33 34 35 36 36 35 35 36 35 35 37 39 42 45 48 51 52 54 55 52 53 55 58 62 66
44 42 41 41 43 46 44 45 33 27 27 28 30 30 33 34 33 37 38 37 37 36 34 33 34 34 35 36 34 34 34 34 35 38 42 43 46 51 53 55 58 58 56 55 57 60 64 67 68
42 42 41 44 45 53 41 43 47 29 29 29 32 30 34 35 35 37 36 35 35 34 34 34 34 34 34 33 32 33 34 36 39 42 44 47 52 55 57 60 62 59 58 61 63 66 69 71 74
45 41 44 49 51 55 46 47 47 41 33 33 34 37 37 35 32 33 31 34 35 35 34 34 33 33 33 33 34 35 37 40 42 45 48 53 57 60 62 62 63 63 63 65 68 72 74 75 77
40 46 50 51 54 55 53 49 42 42 39 34 32 34 34 32 30 31 32 33 32 31 31 32 32 32 33 34 35 38 41 43 45 48 51 55 59 61 62 64 65 66 67 70 74 76 76 78 79
44 47 35 42 43 46 45 44 41 42 44 40 31 30 30 29 30 31 33 33 35 35 34 33 33 34 33 34 36 40 43 46 49 51 54 58 60 63 65 67 69 70 71 74 76 76 78 80 82
46 45 44 45 48 51 52 46 43 44 42 39 36 31 27 27 30 33 35 36 33 32 33 36 37 37 37 38 39 42 46 48 51 54 58 60 63 66 68 70 72 74 76 76 75 77 80 83 83
43 47 46 45 49 49 51 48 47 47 44 39 38 29 24 26 29 32 32 31 32 34 35 37 39 40 40 42 45 49 52 55 58 60 62 63 64 67 69 72 73 76 75 74 78 81 83 85 89
50 52 52 49 47 52 55 48 47 43 40 38 39 37 31 27 31 33 31 32 36 37 37 38 38 40 44 49 52 54 55 57 60 63 66 68 68 70 71 72 76 76 76 78 82 84 86 89 90

GFSSGP_500_spd_048.txt.gz
Wind_Speed
11 12 12 10 8 7 10 10 11 11 10 9 8 8 7 8 9 10 12 12 11 12 12 11 9 11 10 10 11 11 10 10 7 6 7 6 6 5 7 8 8 8 7 8 7 7 8 9 10
9 11 12 11 5 4 9 10 11 10 9 8 8 7 6 6 6 7 9 8 8 10 11 12 10 10 9 9 9 10 10 11 11 10 10 9 7 6 4 4 5 6 6 6 7 8 8 9 9
7 8 11 12 5 4 7 7 9 10 7 7 7 7 5 4 4 4 6 5 5 6 7 8 8 8 8 7 7 7 8 8 9 8 8 8 8 7 6 6 5 4 3 3 2 3 4 5 6
5 5 7 11 8 4 6 6 5 5 5 5 5 2 3 5 6 4 4 5 5 5 5 4 4 4 4 5 5 5 5 6 7 7 6 6 6 5 4 3 2 2 1 1 2 2 3 3 4
2 4 5 8 8 7 5 3 3 3 3 5 4 3 1 1 1 2 3 4 5 5 5 5 5 5 4 3 2 2 3 3 3 3 3 4 4 3 2 1 0 0 1 2 3 5 6 7 8
5 2 4 5 5 6 7 2 2 2 2 5 4 5 2 2 2 1 2 1 0 1 2 3 3 3 3 3 3 3 3 1 1 1 1 2 3 4 4 4 3 3 5 5 6 7 8 9 10
5 2 2 4 6 7 6 3 3 4 4 5 5 6 5 2 1 1 1 1 0 1 1 0 1 2 2 2 2 2 1 1 1 1 0 1 3 4 4 4 5 6 7 8 8 8 9 9 10
6 4 1 1 3 8 6 5 2 6 4 6 8 6 7 5 2 2 2 1 2 1 2 2 3 3 4 5 5 5 5 4 4 5 6 6 6 6 6 5 5 5 7 6 7 8 9 9 10
8 6 7 5 5 6 8 6 4 6 7 6 8 8 8 6 6 5 6 5 5 6 6 5 6 6 7 7 6 7 8 8 8 9 9 8 7 7 8 6 7 8 8 7 7 7 8 10 10
10 9 10 10 8 6 9 8 7 8 8 8 10 11 10 10 9 10 9 9 9 9 9 9 9 8 8 8 9 9 9 9 9 10 10 9 7 8 9 9 8 9 8 8 9 9 8 9 10
13 12 13 12 11 9 10 9 10 8 10 13 12 10 12 13 12 13 13 12 11 11 10 10 9 8 9 10 11 12 13 12 13 12 12 11 10 9 9 9 9 10 11 11 12 13 14 14 15
15 16 15 15 13 12 12 12 13 10 12 16 15 13 13 14 14 14 14 13 12 11 10 10 11 12 12 13 14 15 17 17 18 16 15 14 13 12 12 13 13 14 15 16 16 18 18 20 21
17 17 15 16 16 15 16 16 14 13 15 16 17 18 16 15 15 15 14 14 14 12 11 12 13 14 15 15 16 18 19 21 21 21 20 18 17 16 17 17 17 17 19 20 21 23 24 25 25
17 17 15 17 18 19 19 18 18 18 18 17 18 19 20 17 16 16 15 15 15 15 16 16 15 15 15 15 14 15 18 20 21 23 22 22 20 21 19 19 20 21 22 25 26 27 28 28 30
18 18 18 21 20 20 21 18 19 20 20 19 20 20 21 21 19 19 17 16 16 16 18 20 20 19 18 16 14 14 16 19 20 21 23 24 23 22 21 22 23 25 27 27 29 30 32 32 33
20 21 21 22 20 20 22 17 23 23 24 23 23 23 22 22 22 22 20 20 19 20 21 23 24 23 22 20 19 17 17 19 21 21 22 23 24 26 27 26 27 28 30 31 32 33 34 33 33
24 25 23 23 24 25 26 21 26 27 27 25 25 24 25 24 24 24 23 23 23 23 23 24 26 28 27 26 24 22 22 23 23 26 25 25 26 28 30 30 30 32 31 33 36 37 37 36 36
29 27 26 26 27 29 29 26 29 29 30 29 26 26 27 27 27 27 26 25 25 25 25 25 27 28 29 28 27 26 26 27 27 29 30 30 30 32 32 32 32 32 34 36 37 38 40 41 42
32 31 30 30 33 33 33 34 34 37 35 31 31 30 28 28 29 29 30 30 29 28 27 28 28 29 29 29 30 28 27 28 30 32 34 35 34 33 34 35 35 34 37 40 41 43 45 48 50
34 35 32 33 36 40 38 39 40 41 38 35 34 30 28 29 29 31 33 34 33 31 29 30 31 32 32 31 30 30 31 31 32 33 34 35 36 35 35 36 37 40 43 45 47 48 52 54 56
36 36 35 38 39 42 44 47 42 35 33 31 31 29 27 27 30 33 35 35 35 34 33 32 32 34 34 33 32 33 34 34 35 36 37 37 38 39 37 39 41 44 47 49 50 53 56 57 58
40 37 40 39 42 47 48 54 39 32 29 29 25 28 28 29 32 36 37 37 37 37 35 35 35 34 34 34 34 34 34 35 36 36 36 38 38 39 40 43 45 47 50 52 55 56 56 58 60
41 39 40 42 48 51 50 53 45 32 25 22 26 30 29 30 32 34 36 38 38 37 38 38 37 36 34 35 35 35 35 36 35 35 35 35 37 40 44 46 48 51 53 54 55 56 59 62 63
43 42 43 47 51 61 51 53 54 38 28 25 26 30 33 35 34 35 37 38 38 38 38 37 36 36 35 36 36 36 36 35 35 34 35 37 41 43 46 49 51 52 54 56 58 61 63 65 66
46 45 47 53 57 63 55 55 50 43 34 33 31 32 33 35 37 37 39 39 39 38 38 37 37 36 36 36 36 36 37 35 34 36 38 41 44 46 50 52 53 55 59 62 65 68 69 71 71
41 41 47 52 57 56 52 44 33 31 26 27 28 27 30 35 37 36 37 38 38 38 37 36 36 35 35 35 36 37 35 35 37 40 42 43 45 48 51 54 58 61 65 68 70 72 73 74 77
52 59 54 54 57 56 48 42 37 37 35 31 26 27 29 32 35 35 36 36 35 35 36 36 36 36 36 37 38 38 36 37 39 41 43 45 48 52 56 59 63 66 69 71 74 75 76 78 80
54 47 46 49 54 55 53 49 46 42 40 40 34 31 30 32 31 33 36 38 38 37 37 37 39 40 40 40 40 40 40 40 42 44 47 51 54 57 60 62 64 67 70 73 75 76 78 81 84
47 46 48 51 53 54 53 47 48 45 39 37 37 32 26 26 29 33 37 39 40 40 40 39 38 39 41 43 44 44 42 44 46 49 53 56 58 60 62 64 67 70 72 75 76 78 81 82 83
50 51 51 52 50 50 51 45 46 46 38 36 37 37 37 32 32 34 36 39 38 37 38 39 41 42 43 43 43 42 45 48 50 54 57 58 60 62 63 65 68 71 74 76 78 80 81 81 82